Flag for USA

Past Weather in Tell City, Indiana, USA — Yesterday and Last 2 Weeks

Now
80 °F

Passing clouds.


Feels Like: 83 °F
Forecast: 87 / 65 °F
Wind: 6 mph from West

Location: Bowling Green-Warren County Regional Airport

Current Time: Jul 10, 2020 at 9:54:18 pm

Latest Report: Jul 10, 2020 at 8:53 pm


Visibility: 10 mi

Pressure: 29.92 "Hg

Humidity: 67%

Dew Point: 68 °F

Location of Tell CityLocation

Past Weather in Tell City — Graph

°F

Tell City Temperature Yesterday

Maximum temperature yesterday: 91 °F (at 5:53 pm)
Minimum temperature yesterday: 73 °F (at 4:53 am)
Average temperature yesterday: 83 °F

High & Low Weather Summary for the Past Weeks

 TemperatureHumidityPressure
High92 °F (Jul 7, 1:53 pm)97% (Jun 29, 3:10 am)30.12 "Hg (Jun 29, 3:10 am)
Low63 °F (Jun 26, 5:53 am)39% (Jul 3, 2:53 pm)29.84 "Hg (Jun 28, 6:53 pm)
Average79 °F77%29.94 "Hg
* Reported Jun 25 7:53 pm — Jul 10 7:53 pm, Tell City. Weather by CustomWeather, © 2020

Note: Actual official high and low records may vary slightly from our data, if they occured in-between our weather recording intervals... More about our weather records

Tell City Weather History for the Previous 24 Hours

Scroll right to see more
 ConditionsComfort  
Time TempWeatherWind HumidityBarometerVisibility
7:53 pm
Fri, Jul 10
83 °FClear.6 mph61%29.91 "Hg10 mi
6:53 pm85 °FSunny.8 mph57%29.91 "Hg10 mi
5:53 pm87 °FSunny.8 mph53%29.91 "Hg10 mi
4:53 pm87 °FScattered clouds.9 mph55%29.90 "Hg10 mi
3:53 pm88 °FPassing clouds.13 mph54%29.90 "Hg10 mi
2:53 pm90 °FSunny.12 mph50%29.89 "Hg10 mi
1:53 pm89 °FPassing clouds.14 mph48%29.89 "Hg10 mi
12:53 pm90 °FScattered clouds.13 mph56%29.89 "Hg10 mi
11:53 am88 °FPassing clouds.10 mph63%29.90 "Hg10 mi
10:53 am87 °FScattered clouds.7 mph69%29.89 "Hg10 mi
10:39 am86 °FBroken clouds.13 mph70%29.92 "Hg10 mi
10:08 am84 °FPartly sunny.8 mph74%29.93 "Hg10 mi
9:53 am85 °FPassing clouds.8 mph70%29.90 "Hg10 mi
9:22 am84 °FPassing clouds.8 mph74%29.93 "Hg10 mi
8:53 am82 °FPartly sunny.9 mph79%29.91 "Hg10 mi
7:53 am81 °FSunny.6 mph82%29.91 "Hg10 mi
6:53 am78 °FSunny.7 mph87%29.91 "Hg10 mi
5:53 am77 °FSunny.3 mph88%29.90 "Hg10 mi
4:53 am78 °FSunny.6 mph84%29.88 "Hg10 mi
3:53 am78 °FClear.6 mph84%29.87 "Hg10 mi
2:53 am78 °FClear.5 mph84%29.88 "Hg10 mi
1:53 am79 °FClear.7 mph82%29.88 "Hg10 mi
12:53 am80 °FClear.3 mph79%29.88 "Hg10 mi
11:53 pm
Thu, Jul 9
81 °FClear.3 mph74%29.88 "Hg10 mi
10:53 pm83 °FPassing clouds.3 mph70%29.87 "Hg10 mi
9:53 pm83 °FPassing clouds.No wind72%29.86 "Hg10 mi
Weather by CustomWeather, © 2020

See weather overview